{"data":{"norad_id":66369,"intl_designator":"2025-254X","name":"STARLINK-35795","alt_names":[],"object_type":"PAYLOAD","status":"ACTIVE","operator":null,"country":"US","launch_date":"2025-11-06","launch_site_code":"AFWTR","launch_vehicle":null,"mission":null,"orbit_class":"UNKNOWN","rcs_meters":null,"size_class":null,"mass_kg":null,"dimensions":null,"purposes":["comms"],"wikipedia_slug":null,"has_3d_model":false,"image_url":null,"decayed_at":null,"tle_current":{"epoch":"2026-05-25T05:16:57.835776Z","epoch_age_seconds":56804,"freshness":"FRESH","line1":"1 66369U 25254X   26145.22011384  .00020017  00000+0  68571-3 0  9996","line2":"2 66369  53.1577 234.7445 0001565  86.7420 273.3760 15.30219666 30722","mean_motion":15.30219666,"eccentricity":0.0001565,"inclination_deg":53.1577,"raan_deg":234.7445,"arg_perigee_deg":86.742,"mean_anomaly_deg":273.376,"bstar":0.00068571,"rev_number":3072,"period_min":94.104136288103,"perigee_km":474.0838105076,"apogee_km":476.22889132643,"semimajor_km":6853.293350917,"source":"CELESTRAK","updated_at":"2026-05-25T13:38:21.198095Z"}}}